Location: Central Falls
(41.8900°N, 71.3929°W)
Time: 01:40:56
(UTC+00:00)

Vanguard 3 - Pass Details

Date: 05 December 2023
Orbit: 508 x 3239 km, 33.4° (Epoch: 03 March)

Event Time Altitude Azimuth Distance (km) Brightness Sun altitude
Rises 07:01:30 0° 267° (W) 4,010 - -53.9°
Reaches altitude 10° 07:05:28 10° 253° (WSW) 2,595 - -53.2°
Maximum altitude 07:09:36 20° 207° (SSW) 1,604 - -52.5°
Drops below altitude 10° 07:12:46 10° 159° (SSE) 1,920 - -52.0°
Sets 07:15:11 0° 140° (SE) 2,675 - -51.5°
